AAL9076 KDEN-KLAX

Flight info

Callsign AAL9076
Flight time 1h 58m
Altitude 34000
Route CONNR8 WERNR ZAKRY CHESZ Q88 HAKMN ANJLL4
Aircraft MD83/M-SDFGIRWY/S

Departure

Time 2026-04-20 20:12
Airport Denver International Airport (KDEN)

Arrival

Time 2026-04-20 22:10
Airport Los Angeles International Airport (KLAX)
Time Latitude Longitude Altitude Speed Heading
2026-04-20 19:26 39.86249 -104.67479 5385 ft 0 kts
2026-04-20 20:00 39.86234 -104.67479 5384 ft 4 kts
2026-04-20 20:00 39.86207 -104.67479 5382 ft 4 kts 356°
2026-04-20 20:00 39.86181 -104.67475 5385 ft 4 kts 349°
2026-04-20 20:01 39.86155 -104.67467 5384 ft 4 kts 340°
2026-04-20 20:01 39.86138 -104.67458 5384 ft 1 kts 334°
2026-04-20 20:04 39.86143 -104.67462 5384 ft 4 kts 321°
2026-04-20 20:04 39.86141 -104.67518 5387 ft 8 kts 253°
2026-04-20 20:05 39.86134 -104.67617 5387 ft 15 kts 270°
2026-04-20 20:05 39.86136 -104.67769 5387 ft 17 kts 271°
2026-04-20 20:05 39.86136 -104.67915 5387 ft 15 kts 270°
2026-04-20 20:05 39.86137 -104.68049 5387 ft 14 kts 270°
2026-04-20 20:06 39.86138 -104.68174 5387 ft 13 kts 271°
2026-04-20 20:06 39.86139 -104.68316 5372 ft 20 kts 270°
2026-04-20 20:06 39.86137 -104.68474 5366 ft 12 kts 255°
2026-04-20 20:06 39.86079 -104.68511 5365 ft 9 kts 178°
2026-04-20 20:07 39.86015 -104.68509 5366 ft 12 kts 181°
2026-04-20 20:07 39.85896 -104.68511 5366 ft 21 kts 181°
2026-04-20 20:07 39.85728 -104.68514 5368 ft 26 kts 180°
2026-04-20 20:07 39.85544 -104.68517 5372 ft 26 kts 181°
2026-04-20 20:08 39.85373 -104.68520 5373 ft 24 kts 181°
2026-04-20 20:08 39.85241 -104.68533 5368 ft 18 kts 205°
2026-04-20 20:08 39.85204 -104.68684 5365 ft 20 kts 267°
2026-04-20 20:08 39.85200 -104.68890 5358 ft 25 kts 268°
2026-04-20 20:09 39.85197 -104.69126 5350 ft 27 kts 270°
2026-04-20 20:09 39.85201 -104.69378 5343 ft 27 kts 271°
2026-04-20 20:09 39.85205 -104.69567 5334 ft 18 kts 271°
2026-04-20 20:09 39.85212 -104.69653 5335 ft 5 kts 312°
2026-04-20 20:10 39.85239 -104.69660 5335 ft 3 kts
2026-04-20 20:10 39.85254 -104.69660 5335 ft 2 kts
2026-04-20 20:10 39.85265 -104.69659 5337 ft 4 kts
2026-04-20 20:10 39.85374 -104.69658 5338 ft 36 kts 360°
2026-04-20 20:11 39.85811 -104.69656 5343 ft 90 kts
2026-04-20 20:11 39.86609 -104.69644 5334 ft 137 kts
2026-04-20 20:11 39.87660 -104.69635 5341 ft 172 kts
2026-04-20 20:11 39.88898 -104.69621 5721 ft 181 kts 359°
2026-04-20 20:12 39.90178 -104.69729 6304 ft 188 kts 342°
2026-04-20 20:12 39.91333 -104.70567 6812 ft 191 kts 322°
2026-04-20 20:12 39.92247 -104.71785 7433 ft 189 kts 303°
2026-04-20 20:13 39.92983 -104.75229 8316 ft 212 kts 268°
2026-04-20 20:13 39.92607 -104.77124 8731 ft 226 kts 242°
2026-04-20 20:13 39.91628 -104.78826 8701 ft 258 kts 231°
2026-04-20 20:13 39.90398 -104.80753 8611 ft 290 kts 232°
2026-04-20 20:14 39.89102 -104.82818 9074 ft 296 kts 232°
2026-04-20 20:14 39.87806 -104.84916 9509 ft 297 kts 232°
2026-04-20 20:14 39.86487 -104.86990 9742 ft 298 kts 231°
2026-04-20 20:14 39.85150 -104.89054 9846 ft 297 kts 231°
2026-04-20 20:15 39.83992 -104.91258 9898 ft 296 kts 249°
2026-04-20 20:15 39.83384 -104.93802 10304 ft 299 kts 257°
2026-04-20 20:15 39.82892 -104.96403 11033 ft 295 kts 257°
2026-04-20 20:15 39.82404 -104.98985 11718 ft 296 kts 257°
2026-04-20 20:16 39.81912 -105.01591 12434 ft 295 kts 257°
2026-04-20 20:16 39.81418 -105.04185 13107 ft 297 kts 257°
2026-04-20 20:16 39.80929 -105.06792 13782 ft 297 kts 257°
2026-04-20 20:16 39.80435 -105.09397 14364 ft 298 kts 257°
2026-04-20 20:17 39.79929 -105.12027 14893 ft 300 kts 257°
2026-04-20 20:17 39.79419 -105.14671 15414 ft 302 kts 257°
2026-04-20 20:17 39.78903 -105.17329 15936 ft 304 kts 256°
2026-04-20 20:17 39.78374 -105.20005 16445 ft 306 kts 256°
2026-04-20 20:18 39.77834 -105.22695 16939 ft 309 kts 256°
2026-04-20 20:18 39.77291 -105.25400 17460 ft 310 kts 256°
2026-04-20 20:18 39.76745 -105.28115 17955 ft 312 kts 256°
2026-04-20 20:18 39.76193 -105.30855 18410 ft 315 kts 255°
2026-04-20 20:19 39.75629 -105.33614 18809 ft 317 kts 255°
2026-04-20 20:19 39.75064 -105.36350 19253 ft 319 kts 255°
2026-04-20 20:19 39.74481 -105.39174 19682 ft 320 kts 255°
2026-04-20 20:19 39.73913 -105.41931 20141 ft 321 kts 256°
2026-04-20 20:20 39.73338 -105.44748 20451 ft 327 kts 256°
2026-04-20 20:20 39.72741 -105.47665 20494 ft 341 kts 255°
2026-04-20 20:20 39.72117 -105.50702 20621 ft 354 kts 255°
2026-04-20 20:20 39.71472 -105.53843 20811 ft 364 kts 255°
2026-04-20 20:21 39.70819 -105.57033 21215 ft 367 kts 256°
2026-04-20 20:21 39.70166 -105.60239 21741 ft 367 kts 256°
2026-04-20 20:21 39.69508 -105.63449 22266 ft 368 kts 256°
2026-04-20 20:21 39.68857 -105.66684 22622 ft 374 kts 257°
2026-04-20 20:22 39.68318 -105.70040 22709 ft 386 kts 259°
2026-04-20 20:22 39.67849 -105.73531 22756 ft 399 kts 260°
2026-04-20 20:22 39.67389 -105.77134 22802 ft 411 kts 260°
2026-04-20 20:22 39.66915 -105.80837 22994 ft 420 kts 260°
2026-04-20 20:23 39.66423 -105.84582 23426 ft 422 kts 260°
2026-04-20 20:23 39.65917 -105.88328 23924 ft 421 kts 260°
2026-04-20 20:23 39.65402 -105.92086 24273 ft 424 kts 260°
2026-04-20 20:23 39.64881 -105.95860 24647 ft 425 kts 260°
2026-04-20 20:24 39.64353 -105.99643 25008 ft 427 kts 260°
2026-04-20 20:24 39.63821 -106.03454 25262 ft 432 kts 260°
2026-04-20 20:24 39.63286 -106.07306 25614 ft 434 kts 260°
2026-04-20 20:24 39.62752 -106.11158 25998 ft 435 kts 260°
2026-04-20 20:25 39.62216 -106.15025 26350 ft 436 kts 260°
2026-04-20 20:25 39.61679 -106.18902 26704 ft 437 kts 260°
2026-04-20 20:25 39.61133 -106.22772 27159 ft 435 kts 260°
2026-04-20 20:25 39.60563 -106.26617 27671 ft 432 kts 259°
2026-04-20 20:26 39.59989 -106.30434 28149 ft 430 kts 259°
2026-04-20 20:26 39.59428 -106.34233 28642 ft 428 kts 260°
2026-04-20 20:26 39.58882 -106.38021 29089 ft 427 kts 260°
2026-04-20 20:26 39.58353 -106.41750 29452 ft 427 kts 260°
2026-04-20 20:27 39.57824 -106.45534 29838 ft 426 kts 260°
2026-04-20 20:27 39.57299 -106.49302 30215 ft 424 kts 261°
2026-04-20 20:27 39.56776 -106.53052 30610 ft 421 kts 260°
2026-04-20 20:27 39.56257 -106.56781 30940 ft 420 kts 261°
2026-04-20 20:28 39.55738 -106.60503 31252 ft 419 kts 260°
2026-04-20 20:28 39.55220 -106.64219 31545 ft 418 kts 261°
2026-04-20 20:28 39.54612 -106.67892 31879 ft 417 kts 253°
2026-04-20 20:28 39.53623 -106.71420 32191 ft 416 kts 249°
2026-04-20 20:29 39.52497 -106.74871 32439 ft 416 kts 248°
2026-04-20 20:29 39.51347 -106.78318 32685 ft 416 kts 248°
2026-04-20 20:29 39.50204 -106.81759 32945 ft 415 kts 248°
2026-04-20 20:29 39.49081 -106.85192 33249 ft 413 kts 248°
2026-04-20 20:30 39.47978 -106.88615 33626 ft 411 kts 249°
2026-04-20 20:30 39.46895 -106.92030 33881 ft 410 kts 249°
2026-04-20 20:30 39.45821 -106.95449 34046 ft 411 kts 249°
2026-04-20 20:30 39.44748 -106.98888 34110 ft 414 kts 249°
2026-04-20 20:31 39.42601 -107.05746 34117 ft 412 kts 249°
2026-04-20 20:31 39.40439 -107.12617 34102 ft 412 kts 249°
2026-04-20 20:32 39.38275 -107.19484 34080 ft 413 kts 249°
2026-04-20 20:32 39.35906 -107.26247 34047 ft 414 kts 245°
2026-04-20 20:33 39.33363 -107.32922 34044 ft 414 kts 245°
2026-04-20 20:33 39.30830 -107.39605 34046 ft 414 kts 245°
2026-04-20 20:34 39.28325 -107.46324 34038 ft 416 kts 245°
2026-04-20 20:34 39.25826 -107.53077 34051 ft 417 kts 245°
2026-04-20 20:35 39.23319 -107.59843 34056 ft 418 kts 245°
2026-04-20 20:35 39.20828 -107.66546 34070 ft 416 kts 245°
2026-04-20 20:36 39.18316 -107.73262 34068 ft 416 kts 245°
2026-04-20 20:36 39.15760 -107.79992 34071 ft 422 kts 245°
2026-04-20 20:37 39.13174 -107.86835 34070 ft 427 kts 246°
2026-04-20 20:37 39.10586 -107.93692 34066 ft 425 kts 246°
2026-04-20 20:38 39.08010 -108.00509 34080 ft 422 kts 246°
2026-04-20 20:38 39.05436 -108.07314 34074 ft 423 kts 246°
2026-04-20 20:39 39.02860 -108.14124 34085 ft 423 kts 245°
2026-04-20 20:39 39.00285 -108.20908 34068 ft 421 kts 245°
2026-04-20 20:40 38.97686 -108.27647 34072 ft 420 kts 245°
2026-04-20 20:40 38.95090 -108.34389 34080 ft 421 kts 245°
2026-04-20 20:41 38.92510 -108.41099 34088 ft 422 kts 245°
2026-04-20 20:41 38.89889 -108.47896 34077 ft 428 kts 246°
2026-04-20 20:42 38.87233 -108.54819 34067 ft 434 kts 246°
2026-04-20 20:42 38.84570 -108.61747 34057 ft 432 kts 246°
2026-04-20 20:43 38.81912 -108.68628 34039 ft 429 kts 245°
2026-04-20 20:43 38.79240 -108.75460 34034 ft 429 kts 245°
2026-04-20 20:44 38.76550 -108.82314 34037 ft 434 kts 246°
2026-04-20 20:44 38.73830 -108.89287 34051 ft 440 kts 246°
2026-04-20 20:45 38.71121 -108.96227 34040 ft 438 kts 246°
2026-04-20 20:45 38.68405 -109.03175 34044 ft 435 kts 246°
2026-04-20 20:46 38.65679 -109.10143 34040 ft 435 kts 246°
2026-04-20 20:46 38.62967 -109.17037 34036 ft 439 kts 246°
2026-04-20 20:47 38.60185 -109.24042 34047 ft 443 kts 246°
2026-04-20 20:47 38.57399 -109.31052 34036 ft 441 kts 246°
2026-04-20 20:48 38.54624 -109.38034 34033 ft 439 kts 246°
2026-04-20 20:48 38.51867 -109.44982 34028 ft 439 kts 246°
2026-04-20 20:49 38.49571 -109.50764 34031 ft 440 kts 246°
2026-04-20 20:49 38.46801 -109.57734 34020 ft 441 kts 246°
2026-04-20 20:50 38.43952 -109.64667 34011 ft 441 kts 244°
2026-04-20 20:50 38.40989 -109.71518 34008 ft 440 kts 245°
2026-04-20 20:51 38.38187 -109.78446 34009 ft 439 kts 246°
2026-04-20 20:51 38.35473 -109.85406 34000 ft 437 kts 247°
2026-04-20 20:52 38.32794 -109.92285 33999 ft 435 kts 246°
2026-04-20 20:52 38.30087 -109.99169 33999 ft 435 kts 246°
2026-04-20 20:53 38.27344 -110.06051 34001 ft 437 kts 245°
2026-04-20 20:53 38.24456 -110.12826 34008 ft 440 kts 244°
2026-04-20 20:54 38.21546 -110.19688 34004 ft 439 kts 245°
2026-04-20 20:54 38.18698 -110.26532 34004 ft 437 kts 245°
2026-04-20 20:55 38.15881 -110.33351 34000 ft 435 kts 245°
2026-04-20 20:55 38.13062 -110.40183 33981 ft 437 kts 246°
2026-04-20 20:56 38.10202 -110.47032 34001 ft 439 kts 245°
2026-04-20 20:56 38.07335 -110.53862 34002 ft 437 kts 245°
2026-04-20 20:57 38.04494 -110.60607 34000 ft 435 kts 245°
2026-04-20 20:57 38.01639 -110.67363 34005 ft 435 kts 245°
2026-04-20 20:58 37.98771 -110.74156 34017 ft 437 kts 245°
2026-04-20 20:58 37.95897 -110.80962 34013 ft 438 kts 245°
2026-04-20 20:59 37.93024 -110.87757 34013 ft 436 kts 245°
2026-04-20 20:59 37.90162 -110.94508 34009 ft 434 kts 245°
2026-04-20 21:00 37.87315 -111.01205 34010 ft 435 kts 244°
2026-04-20 21:00 37.84414 -111.07961 34013 ft 438 kts 244°
2026-04-20 21:01 37.81500 -111.14741 34016 ft 439 kts 244°
2026-04-20 21:01 37.78595 -111.21508 34023 ft 437 kts 244°
2026-04-20 21:02 37.75719 -111.28201 34012 ft 435 kts 244°
2026-04-20 21:02 37.72835 -111.34927 34009 ft 436 kts 244°
2026-04-20 21:03 37.69942 -111.41661 34015 ft 436 kts 244°
2026-04-20 21:03 37.66984 -111.48360 34023 ft 437 kts 243°
2026-04-20 21:04 37.63968 -111.55027 34009 ft 437 kts 244°
2026-04-20 21:04 37.61034 -111.61750 34020 ft 438 kts 244°
2026-04-20 21:05 37.58143 -111.68511 34013 ft 438 kts 244°
2026-04-20 21:05 37.55265 -111.75251 34022 ft 436 kts 244°
2026-04-20 21:06 37.52383 -111.81955 34054 ft 435 kts 244°
2026-04-20 21:06 37.49402 -111.88577 34074 ft 435 kts 238°
2026-04-20 21:07 37.45767 -111.94720 34075 ft 440 kts 235°
2026-04-20 21:07 37.42056 -112.00803 34066 ft 442 kts 236°
2026-04-20 21:08 37.38387 -112.06991 34049 ft 440 kts 236°
2026-04-20 21:08 37.34760 -112.13197 34020 ft 440 kts 236°
2026-04-20 21:09 37.31159 -112.19388 34017 ft 437 kts 236°
2026-04-20 21:09 37.27566 -112.25530 34025 ft 435 kts 236°
2026-04-20 21:10 37.23980 -112.31635 34023 ft 435 kts 236°
2026-04-20 21:10 37.20395 -112.37732 34013 ft 437 kts 236°
2026-04-20 21:11 37.16785 -112.43868 34009 ft 438 kts 236°
2026-04-20 21:11 37.13173 -112.50002 33996 ft 436 kts 236°
2026-04-20 21:12 37.09561 -112.56088 34000 ft 434 kts 236°
2026-04-20 21:12 37.05969 -112.62135 33997 ft 432 kts 236°
2026-04-20 21:13 37.02366 -112.68186 34036 ft 434 kts 236°
2026-04-20 21:13 36.98741 -112.74246 34065 ft 435 kts 236°
2026-04-20 21:14 36.95137 -112.80287 34097 ft 435 kts 236°
2026-04-20 21:14 36.91529 -112.86331 34116 ft 431 kts 236°
2026-04-20 21:15 36.87949 -112.92320 34126 ft 429 kts 236°
2026-04-20 21:15 36.84379 -112.98296 34122 ft 431 kts 236°
2026-04-20 21:16 36.80786 -113.04296 34096 ft 432 kts 235°
2026-04-20 21:16 36.77167 -113.10296 34069 ft 433 kts 235°
2026-04-20 21:17 36.73537 -113.16273 34030 ft 430 kts 236°
2026-04-20 21:17 36.69955 -113.22188 33993 ft 425 kts 235°
2026-04-20 21:18 36.66416 -113.28066 33961 ft 424 kts 234°
2026-04-20 21:18 36.62891 -113.33933 33964 ft 427 kts 236°
2026-04-20 21:19 36.59400 -113.39933 33959 ft 428 kts 237°
2026-04-20 21:20 36.54277 -113.49034 33956 ft 427 kts 237°
2026-04-20 21:20 36.50863 -113.55057 33948 ft 425 kts 237°
2026-04-20 21:21 36.47455 -113.61039 33947 ft 423 kts 236°
2026-04-20 21:21 36.44044 -113.67018 33940 ft 425 kts 237°
2026-04-20 21:22 36.40632 -113.73000 33932 ft 423 kts 237°
2026-04-20 21:22 36.37231 -113.78968 33917 ft 424 kts 236°
2026-04-20 21:23 36.33817 -113.84892 33922 ft 425 kts 236°
2026-04-20 21:23 36.30373 -113.90833 33898 ft 424 kts 236°
2026-04-20 21:24 36.26936 -113.96797 33898 ft 427 kts 236°
2026-04-20 21:24 36.23488 -114.02792 33883 ft 428 kts 236°
2026-04-20 21:25 36.20036 -114.08777 33890 ft 425 kts 235°
2026-04-20 21:25 36.16629 -114.14673 33865 ft 416 kts 235°
2026-04-20 21:26 36.13282 -114.20456 33862 ft 412 kts 236°
2026-04-20 21:26 36.09937 -114.26222 33868 ft 413 kts 235°
2026-04-20 21:27 36.06398 -114.31822 33875 ft 420 kts 229°
2026-04-20 21:27 36.02405 -114.37187 33874 ft 425 kts 228°
2026-04-20 21:28 35.98432 -114.42552 33861 ft 421 kts 228°
2026-04-20 21:28 35.94548 -114.47876 33877 ft 414 kts 229°
2026-04-20 21:29 35.90744 -114.53156 33891 ft 410 kts 229°
2026-04-20 21:29 35.86964 -114.58391 33905 ft 408 kts 229°
2026-04-20 21:30 35.83158 -114.63656 33879 ft 415 kts 229°
2026-04-20 21:30 35.79279 -114.68997 33919 ft 420 kts 228°
2026-04-20 21:31 35.75367 -114.74349 33906 ft 420 kts 228°
2026-04-20 21:31 35.71484 -114.79661 33934 ft 419 kts 228°
2026-04-20 21:32 35.67612 -114.84978 33923 ft 415 kts 229°
2026-04-20 21:32 35.63759 -114.90254 33931 ft 415 kts 229°
2026-04-20 21:33 35.59895 -114.95519 33934 ft 418 kts 228°
2026-04-20 21:33 35.56025 -115.00787 33933 ft 413 kts 228°
2026-04-20 21:34 35.52190 -115.06048 33948 ft 415 kts 228°
2026-04-20 21:34 35.48275 -115.11309 33951 ft 418 kts 227°
2026-04-20 21:35 35.44299 -115.16461 33955 ft 413 kts 226°
2026-04-20 21:35 35.40380 -115.21535 33960 ft 412 kts 226°
2026-04-20 21:36 35.36433 -115.26680 33961 ft 415 kts 226°
2026-04-20 21:36 35.32474 -115.31833 33965 ft 414 kts 226°
2026-04-20 21:37 35.28551 -115.36948 33966 ft 411 kts 226°
2026-04-20 21:37 35.24641 -115.42047 33976 ft 410 kts 226°
2026-04-20 21:38 35.20723 -115.47121 33984 ft 412 kts 226°
2026-04-20 21:38 35.17438 -115.51356 33979 ft 415 kts 226°
2026-04-20 21:39 35.13458 -115.56505 33983 ft 418 kts 226°
2026-04-20 21:39 35.09449 -115.61661 33979 ft 418 kts 225°
2026-04-20 21:40 35.05444 -115.66742 33968 ft 417 kts 225°
2026-04-20 21:40 35.01433 -115.71866 33966 ft 416 kts 225°
2026-04-20 21:41 34.97459 -115.76934 33951 ft 415 kts 225°
2026-04-20 21:41 34.93474 -115.82010 33947 ft 414 kts 225°
2026-04-20 21:42 34.89480 -115.87097 33949 ft 416 kts 225°
2026-04-20 21:42 34.85476 -115.92193 33931 ft 417 kts 225°
2026-04-20 21:43 34.81467 -115.97296 33940 ft 416 kts 225°
2026-04-20 21:43 34.77470 -116.02352 33919 ft 413 kts 224°
2026-04-20 21:44 34.73524 -116.07346 33920 ft 411 kts 225°
2026-04-20 21:44 34.69570 -116.12369 33922 ft 412 kts 225°
2026-04-20 21:45 34.65609 -116.17410 33919 ft 413 kts 225°
2026-04-20 21:45 34.61636 -116.22462 33919 ft 414 kts 225°
2026-04-20 21:46 34.57663 -116.27509 33918 ft 412 kts 225°
2026-04-20 21:46 34.53706 -116.32526 33923 ft 411 kts 225°
2026-04-20 21:47 34.49757 -116.37524 33924 ft 410 kts 225°
2026-04-20 21:47 34.47795 -116.40006 33566 ft 418 kts 225°
2026-04-20 21:47 34.45771 -116.42555 33115 ft 420 kts 225°
2026-04-20 21:47 34.43753 -116.45099 32587 ft 418 kts 225°
2026-04-20 21:48 34.41795 -116.47685 32010 ft 417 kts 232°
2026-04-20 21:48 34.40284 -116.50689 31481 ft 419 kts 240°
2026-04-20 21:48 34.38982 -116.53857 30903 ft 421 kts 242°
2026-04-20 21:48 34.37719 -116.57072 30293 ft 424 kts 242°
2026-04-20 21:49 34.36455 -116.60306 29583 ft 424 kts 242°
2026-04-20 21:49 34.35190 -116.63505 28860 ft 419 kts 242°
2026-04-20 21:49 34.33936 -116.66622 28662 ft 403 kts 241°
2026-04-20 21:49 34.32726 -116.69614 28364 ft 391 kts 241°
2026-04-20 21:50 34.31530 -116.72571 27622 ft 391 kts 241°
2026-04-20 21:50 34.30344 -116.75522 26947 ft 389 kts 242°
2026-04-20 21:50 34.29167 -116.78460 26346 ft 387 kts 242°
2026-04-20 21:50 34.27971 -116.81366 25739 ft 385 kts 242°
2026-04-20 21:51 34.26786 -116.84254 25141 ft 383 kts 242°
2026-04-20 21:51 34.25613 -116.87143 24541 ft 382 kts 242°
2026-04-20 21:51 34.24455 -116.90031 23930 ft 382 kts 242°
2026-04-20 21:51 34.23298 -116.92915 23258 ft 381 kts 242°
2026-04-20 21:52 34.22140 -116.95792 22561 ft 380 kts 242°
2026-04-20 21:52 34.21009 -116.98664 21930 ft 378 kts 245°
2026-04-20 21:52 34.20093 -117.01628 21352 ft 376 kts 249°
2026-04-20 21:52 34.19299 -117.04618 20779 ft 373 kts 250°
2026-04-20 21:53 34.18533 -117.07604 20205 ft 371 kts 250°
2026-04-20 21:53 34.17774 -117.10577 19612 ft 370 kts 250°
2026-04-20 21:53 34.17022 -117.13481 19004 ft 362 kts 250°
2026-04-20 21:53 34.16271 -117.16339 18384 ft 352 kts 249°
2026-04-20 21:54 34.15524 -117.19119 17747 ft 345 kts 249°
2026-04-20 21:54 34.14772 -117.21849 17096 ft 340 kts 249°
2026-04-20 21:54 34.14022 -117.24540 16505 ft 337 kts 248°
2026-04-20 21:54 34.13276 -117.27209 15945 ft 336 kts 249°
2026-04-20 21:55 34.12530 -117.29878 15412 ft 335 kts 249°
2026-04-20 21:55 34.11787 -117.32544 14888 ft 335 kts 249°
2026-04-20 21:55 34.11048 -117.35204 14418 ft 333 kts 249°
2026-04-20 21:55 34.10328 -117.37826 14168 ft 327 kts 249°
2026-04-20 21:56 34.09659 -117.40404 13854 ft 316 kts 250°
2026-04-20 21:56 34.09027 -117.42930 13176 ft 314 kts 251°
2026-04-20 21:56 34.08409 -117.45430 12510 ft 307 kts 251°
2026-04-20 21:56 34.07798 -117.47901 12227 ft 312 kts 250°
2026-04-20 21:57 34.07178 -117.50406 12091 ft 313 kts 251°
2026-04-20 21:57 34.06555 -117.52886 12028 ft 314 kts 250°
2026-04-20 21:57 34.05914 -117.55408 11990 ft 314 kts 250°
2026-04-20 21:57 34.05265 -117.57928 11976 ft 315 kts 250°
2026-04-20 21:58 34.04615 -117.60458 11966 ft 315 kts 250°
2026-04-20 21:58 34.03972 -117.62980 11957 ft 315 kts 251°
2026-04-20 21:58 34.03379 -117.65466 11824 ft 300 kts 251°
2026-04-20 21:58 34.02809 -117.67836 11383 ft 288 kts 250°
2026-04-20 21:59 34.02263 -117.70111 10915 ft 280 kts 253°
2026-04-20 21:59 34.01878 -117.72432 10460 ft 285 kts 258°
2026-04-20 21:59 34.01609 -117.74816 10018 ft 289 kts 260°
2026-04-20 21:59 34.01378 -117.77233 9541 ft 290 kts 260°
2026-04-20 22:00 34.01146 -117.79626 9299 ft 283 kts 261°
2026-04-20 22:00 34.00946 -117.81938 9081 ft 275 kts 260°
2026-04-20 22:00 34.00754 -117.84212 8739 ft 270 kts 261°
2026-04-20 22:00 34.00574 -117.86425 8165 ft 262 kts 261°
2026-04-20 22:01 34.00412 -117.88558 7652 ft 250 kts 262°
2026-04-20 22:01 34.00288 -117.90577 7363 ft 230 kts 262°
2026-04-20 22:01 34.00139 -117.92484 7069 ft 230 kts 260°
2026-04-20 22:01 34.00003 -117.94415 6788 ft 233 kts 261°
2026-04-20 22:02 33.99852 -117.96391 6497 ft 239 kts 259°
2026-04-20 22:02 33.99626 -117.98347 6408 ft 231 kts 256°
2026-04-20 22:02 33.99377 -118.00228 6100 ft 226 kts 258°
2026-04-20 22:02 33.99128 -118.02079 5752 ft 223 kts 256°
2026-04-20 22:03 33.98881 -118.03921 5512 ft 221 kts 256°
2026-04-20 22:03 33.98660 -118.05715 5250 ft 210 kts 259°
2026-04-20 22:03 33.98481 -118.07416 4989 ft 200 kts 259°
2026-04-20 22:03 33.98330 -118.09014 4805 ft 188 kts 260°
2026-04-20 22:04 33.98200 -118.10554 4595 ft 183 kts 260°
2026-04-20 22:04 33.98063 -118.12085 4417 ft 184 kts 261°
2026-04-20 22:04 33.97923 -118.13621 4205 ft 185 kts 261°
2026-04-20 22:04 33.97780 -118.15163 4041 ft 185 kts 261°
2026-04-20 22:05 33.97612 -118.16699 3915 ft 184 kts 259°
2026-04-20 22:05 33.97435 -118.18226 3764 ft 184 kts 261°
2026-04-20 22:05 33.97279 -118.19769 3576 ft 185 kts 262°
2026-04-20 22:05 33.97131 -118.21300 3355 ft 183 kts 261°
2026-04-20 22:06 33.96982 -118.22819 3099 ft 183 kts 261°
2026-04-20 22:06 33.96823 -118.24317 2867 ft 178 kts 262°
2026-04-20 22:06 33.96676 -118.25790 2568 ft 176 kts 261°
2026-04-20 22:06 33.96538 -118.27223 2345 ft 168 kts 261°
2026-04-20 22:07 33.96404 -118.28616 2008 ft 168 kts 261°
2026-04-20 22:07 33.96259 -118.30015 1731 ft 169 kts 261°
2026-04-20 22:07 33.96104 -118.31416 1489 ft 167 kts 260°
2026-04-20 22:07 33.95952 -118.32817 1263 ft 172 kts 261°
2026-04-20 22:08 33.95819 -118.34209 1290 ft 158 kts 261°
2026-04-20 22:08 33.95704 -118.35449 1139 ft 138 kts 261°
2026-04-20 22:08 33.95593 -118.36534 946 ft 128 kts 258°
2026-04-20 22:08 33.95466 -118.37638 700 ft 133 kts 262°
2026-04-20 22:09 33.95345 -118.38735 475 ft 131 kts 267°
2026-04-20 22:09 33.95253 -118.39812 265 ft 127 kts 263°
2026-04-20 22:09 33.95144 -118.40853 132 ft 119 kts 262°
2026-04-20 22:09 33.95058 -118.41684 125 ft 73 kts 263°
2026-04-20 22:10 33.95004 -118.42206 124 ft 51 kts 263°
2026-04-20 22:10 33.94956 -118.42495 126 ft 30 kts 246°
2026-04-20 22:10 33.94882 -118.42640 123 ft 10 kts 231°
2026-04-20 22:10 33.94861 -118.42667 122 ft 0 kts 225°
2026-04-20 22:11 33.94861 -118.42668 122 ft 0 kts 225°
2026-04-20 22:11 33.94850 -118.42681 125 ft 6 kts 225°
2026-04-20 22:11 33.94823 -118.42712 125 ft 11 kts 220°
2026-04-20 22:12 33.94739 -118.42769 122 ft 15 kts 197°
2026-04-20 22:12 33.94649 -118.42763 122 ft 14 kts 136°
2026-04-20 22:12 33.94647 -118.42598 126 ft 20 kts 83°
2026-04-20 22:12 33.94662 -118.42449 123 ft 18 kts 83°
2026-04-20 22:13 33.94678 -118.42298 126 ft 19 kts 82°
2026-04-20 22:13 33.94694 -118.42140 125 ft 19 kts 83°
2026-04-20 22:13 33.94711 -118.41974 126 ft 20 kts 83°
2026-04-20 22:13 33.94728 -118.41802 124 ft 21 kts 83°
2026-04-20 22:14 33.94745 -118.41632 126 ft 19 kts 83°
2026-04-20 22:14 33.94762 -118.41484 122 ft 18 kts 81°
2026-04-20 22:14 33.94785 -118.41352 126 ft 13 kts 86°
2026-04-20 22:14 33.94726 -118.41290 124 ft 11 kts 171°
2026-04-20 22:15 33.94644 -118.41279 124 ft 12 kts 174°
2026-04-20 22:15 33.94557 -118.41266 125 ft 13 kts 173°
2026-04-20 22:15 33.94499 -118.41296 124 ft 7 kts 243°
2026-04-20 22:15 33.94508 -118.41339 123 ft 5 kts 312°
2026-04-20 22:16 33.94536 -118.41374 122 ft 6 kts 302°
2026-04-20 22:16 33.94543 -118.41426 124 ft 7 kts 268°
2026-04-20 22:16 33.94540 -118.41471 123 ft 2 kts 263°
2026-04-20 22:16 33.94540 -118.41474 123 ft 0 kts 263°